Location: Garos
(43.5000°N, 0.4667°W)
Time: 04:31:04
(UTC+00:00)

CZ-4B R/B - Pass Details

Date: 03 February 2023
Orbit: 474 x 640 km, 97.9° (Epoch: 26 March)

Event Time Altitude Azimuth Distance (km) Brightness Sun altitude
Rises 18:30:28 0° 186° (S) 2,819 6.6 -13.9°
Reaches altitude 10° 18:32:49 10° 195° (SSW) 1,894 5.9 -14.3°
Maximum altitude 18:36:35 35° 262° (W) 926 4.7 -15.0°
Drops below altitude 10° 18:40:12 10° 328° (NNW) 1,813 5.8 -15.6°
Sets 18:42:24 0° 338° (NNW) 2,679 6.5 -16.0°
